Location: Boncourt
(49.6160°N, 3.9448°E)
Time: 05:53:13
(UTC+00:00)

Lacrosse 5 - Pass Details

Date: 09 February 2023
Orbit: 714 x 724 km, 57.0° (Epoch: 09 March)

Event Time Altitude Azimuth Distance (km) Brightness Sun altitude
Rises 18:16:21 0° 266° (W) 3,135 7.2 -13.9°
Reaches altitude 10° 18:18:51 10° 273° (W) 2,217 5.8 -14.3°
Maximum altitude 18:23:43 42° 345° (NNW) 1,028 2.7 -15.1°
Enters shadow 18:27:06 18° 48° (NE) 1,715 3.4 -15.7°
